Location: Austin
(30.3000°N, 97.7500°W)
Time: 02:17:01
(UTC-06:00)

Aureole 3 Rocket - Pass Details

Date: 20 November 2023
Orbit: 398 x 1720 km, 82.5° (Epoch: 04 December)

Event Time Altitude Azimuth Distance (km) Brightness Sun altitude
Rises 18:12:14 0° 3° (N) 3,866 6.9 -8.9°
Reaches altitude 10° 18:15:32 10° 14° (NNE) 2,663 6.0 -9.6°
Maximum altitude 18:20:37 30° 73° (ENE) 1,333 4.2 -10.7°
Drops below altitude 10° 18:24:28 10° 135° (SE) 1,979 5.4 -11.5°
Sets 18:26:35 0° 147° (SSE) 2,728 6.2 -11.9°
